Voltar ao catálogo

KUIPER-00148

AtivoComunicaçõesLEO
NORAD 65769·PAYLOAD·🇺🇸 United States

Lançado Sep 25, 2025 de Cape Canaveral Space Force Station

Loading…

Próximas Passagens (próximas 24 horas)

TLE

AtualizadoSource: CelesTrak SupGP

Época: Sep 14, 2026, 22:24 UTC

1 65769C 25217H   26257.93368056 -.00009911  00000+0 -12974-2 0  2575
2 65769  51.9034 266.2901 0000544  79.5310 155.1406 14.79941587    19

Acompanhe KUIPER-00148 em tempo real com AllMySat

Download on the App Store